When you browse on this site, cookies collect data to enhance your experience and personalize the content and advertising you see.
Visit our Privacy Policy to learn more. By continuing to use the site, you agree to this use of cookies and data.
  • Em Portugal
  • Lista de países
  • Para 7 dias
  • Temperatura da água
  • Mapas de satélite
  • Mapa do tempo
  • Widgets de tempo
  • user-avatar
    Iniciar Sessão

    Previsão horária em Barisal

    Hoje, 11 Dezembro, Terça-feira

    Tempo Temperatura Precipitação Vento Pressão Humidade
    00:00 +21°C° 0 mm 1 m/s 759 mmHg 50%
    01:00 +20°C° 0 mm 1 m/s 759 mmHg 51%
    02:00 +19°C° 0 mm 2 m/s 759 mmHg 52%
    03:00 +19°C° 0 mm 2 m/s 759 mmHg 53%
    04:00 +19°C° 0 mm 2 m/s 759 mmHg 55%
    05:00 +18°C° 0 mm 2 m/s 759 mmHg 57%
    06:00 +18°C° 0 mm 2 m/s 759 mmHg 60%
    07:00 +19°C° 0 mm 2 m/s 759 mmHg 56%
    08:00 +21°C° 0 mm 2 m/s 760 mmHg 52%
    09:00 +24°C° 0 mm 2 m/s 760 mmHg 48%
    10:00 +26°C° 0 mm 2 m/s 760 mmHg 43%
    11:00 +28°C° 0 mm 2 m/s 760 mmHg 38%
    12:00 +31°C° 0 mm 2 m/s 759 mmHg 29%
    13:00 +31°C° 0 mm 2 m/s 759 mmHg 29%
    14:00 +31°C° 0 mm 2 m/s 758 mmHg 28%
    15:00 +31°C° 0 mm 2 m/s 758 mmHg 28%
    16:00 +29°C° 0 mm 2 m/s 758 mmHg 31%
    17:00 +27°C° 0 mm 1 m/s 758 mmHg 35%
    18:00 +25°C° 0 mm 1 m/s 758 mmHg 43%
    19:00 +24°C° 0 mm 1 m/s 758 mmHg 44%
    20:00 +24°C° 0 mm 1 m/s 759 mmHg 44%
    21:00 +23°C° 0 mm 1 m/s 759 mmHg 45%
    22:00 +23°C° 0 mm 1 m/s 759 mmHg 46%
    23:00 +22°C° 0 mm 1 m/s 759 mmHg 48%

    Amanhã, 12 Dezembro, Quarta-feira

    Tempo Temperatura Precipitação Vento Pressão Humidade
    00:00 +22°C° 0 mm 1 m/s 759 mmHg 49%
    01:00 +22°C° 0 mm 1 m/s 759 mmHg 50%
    02:00 +21°C° 0 mm 1 m/s 759 mmHg 51%
    03:00 +21°C° 0 mm 1 m/s 759 mmHg 52%
    04:00 +20°C° 0 mm 2 m/s 759 mmHg 52%
    05:00 +20°C° 0 mm 2 m/s 759 mmHg 53%
    06:00 +19°C° 0 mm 2 m/s 760 mmHg 54%
    07:00 +21°C° 0 mm 2 m/s 760 mmHg 51%
    08:00 +24°C° 0 mm 2 m/s 760 mmHg 47%
    09:00 +26°C° 0 mm 2 m/s 761 mmHg 43%
    10:00 +27°C° 0 mm 2 m/s 761 mmHg 39%
    11:00 +29°C° 0 mm 2 m/s 761 mmHg 36%
    12:00 +30°C° 0 mm 2 m/s 761 mmHg 32%
    13:00 +31°C° 0 mm 2 m/s 760 mmHg 32%
    14:00 +31°C° 0 mm 2 m/s 759 mmHg 31%
    15:00 +31°C° 0 mm 2 m/s 759 mmHg 31%
    16:00 +30°C° 0 mm 2 m/s 759 mmHg 35%
    17:00 +28°C° 0 mm 2 m/s 759 mmHg 39%
    18:00 +26°C° 0 mm 2 m/s 759 mmHg 42%
    19:00 +25°C° 0 mm 2 m/s 759 mmHg 44%
    20:00 +25°C° 0 mm 2 m/s 760 mmHg 45%
    21:00 +24°C° 0 mm 2 m/s 760 mmHg 47%
    22:00 +24°C° 0 mm 2 m/s 760 mmHg 48%
    23:00 +23°C° 0 mm 2 m/s 761 mmHg 50%

    Depois de amanhã, 13 Dezembro, Quinta-feira

    Tempo Temperatura Precipitação Vento Pressão Humidade
    00:00 +23°C° 0 mm 2 m/s 761 mmHg 51%
    01:00 +23°C° 0 mm 2 m/s 761 mmHg 54%
    02:00 +21°C° 0 mm 2 m/s 760 mmHg 56%
    03:00 +21°C° 0 mm 2 m/s 760 mmHg 59%
    04:00 +21°C° 0 mm 3 m/s 760 mmHg 62%
    05:00 +20°C° 0 mm 3 m/s 760 mmHg 65%
    06:00 +20°C° 0 mm 3 m/s 760 mmHg 68%
    07:00 +22°C° 0 mm 3 m/s 761 mmHg 64%
    08:00 +24°C° 0 mm 3 m/s 762 mmHg 59%
    09:00 +26°C° 0 mm 3 m/s 762 mmHg 55%
    10:00 +28°C° 0 mm 3 m/s 762 mmHg 48%
    11:00 +29°C° 0 mm 3 m/s 762 mmHg 41%
    12:00 +31°C° 0 mm 3 m/s 761 mmHg 35%
    13:00 +31°C° 0 mm 3 m/s 760 mmHg 33%
    14:00 +31°C° 0 mm 3 m/s 760 mmHg 32%
    15:00 +31°C° 0 mm 3 m/s 759 mmHg 31%
    16:00 +29°C° 0 mm 3 m/s 759 mmHg 34%
    17:00 +28°C° 0 mm 3 m/s 759 mmHg 38%
    18:00 +26°C° 0 mm 2 m/s 760 mmHg 42%
    19:00 +25°C° 0 mm 2 m/s 760 mmHg 43%
    20:00 +25°C° 0 mm 2 m/s 761 mmHg 45%
    21:00 +24°C° 0 mm 2 m/s 761 mmHg 46%
    22:00 +24°C° 0 mm 3 m/s 761 mmHg 48%
    23:00 +22°C° 0 mm 3 m/s 761 mmHg 50%

    14 Dezembro, Sexta-feira

    Tempo Temperatura Precipitação Vento Pressão Humidade
    00:00 +22°C° 0 mm 3 m/s 761 mmHg 51%
    01:00 +22°C° 0 mm 3 m/s 761 mmHg 52%
    02:00 +21°C° 0 mm 3 m/s 761 mmHg 54%
    03:00 +21°C° 0 mm 3 m/s 761 mmHg 55%
    04:00 +21°C° 0 mm 3 m/s 761 mmHg 56%
    05:00 +20°C° 0 mm 3 m/s 761 mmHg 57%
    06:00 +20°C° 0 mm 3 m/s 761 mmHg 58%
    07:00 +21°C° 0 mm 3 m/s 762 mmHg 54%
    08:00 +23°C° 0 mm 4 m/s 762 mmHg 50%
    09:00 +26°C° 0 mm 4 m/s 763 mmHg 46%
    10:00 +27°C° 0 mm 4 m/s 762 mmHg 41%
    11:00 +29°C° 0 mm 4 m/s 762 mmHg 36%
    12:00 +32°C° 0 mm 4 m/s 762 mmHg 32%
    13:00 +32°C° 0 mm 4 m/s 761 mmHg 31%
    14:00 +32°C° 0 mm 4 m/s 761 mmHg 30%
    15:00 +32°C° 0 mm 4 m/s 760 mmHg 29%
    16:00 +29°C° 0 mm 3 m/s 760 mmHg 32%
    17:00 +28°C° 0 mm 3 m/s 760 mmHg 35%
    18:00 +26°C° 0 mm 2 m/s 761 mmHg 38%
    19:00 +26°C° 0 mm 2 m/s 761 mmHg 38%
    20:00 +26°C° 0 mm 3 m/s 762 mmHg 38%
    21:00 +25°C° 0 mm 3 m/s 763 mmHg 38%
    22:00 +25°C° 0 mm 3 m/s 762 mmHg 39%
    23:00 +24°C° 0 mm 3 m/s 762 mmHg 40%

    15 Dezembro, Sábado

    Tempo Temperatura Precipitação Vento Pressão Humidade
    00:00 +23°C° 0 mm 4 m/s 762 mmHg 41%
    01:00 +23°C° 0 mm 4 m/s 762 mmHg 42%
    02:00 +23°C° 0 mm 4 m/s 762 mmHg 43%
    03:00 +22°C° 0 mm 5 m/s 761 mmHg 44%
    04:00 +22°C° 0 mm 4 m/s 761 mmHg 43%
    05:00 +22°C° 0 mm 4 m/s 761 mmHg 43%
    06:00 +22°C° 0 mm 4 m/s 761 mmHg 43%
    07:00 +22°C° 0 mm 4 m/s 762 mmHg 45%
    08:00 +22°C° 0 mm 4 m/s 763 mmHg 47%
    09:00 +22°C° 0 mm 4 m/s 763 mmHg 49%
    10:00 +23°C° 0 mm 4 m/s 763 mmHg 49%
    11:00 +23°C° 0 mm 4 m/s 763 mmHg 49%
    12:00 +23°C° 0 mm 4 m/s 762 mmHg 49%
    13:00 +23°C° 0 mm 4 m/s 762 mmHg 48%
    14:00 +23°C° 0 mm 4 m/s 761 mmHg 48%
    15:00 +23°C° 0 mm 4 m/s 761 mmHg 48%
    16:00 +23°C° 0 mm 4 m/s 761 mmHg 48%
    17:00 +22°C° 0 mm 3 m/s 762 mmHg 49%
    18:00 +22°C° 0 mm 3 m/s 762 mmHg 49%
    19:00 +22°C° 0 mm 3 m/s 762 mmHg 49%
    20:00 +22°C° 0 mm 3 m/s 763 mmHg 48%
    21:00 +22°C° 0 mm 3 m/s 763 mmHg 48%
    22:00 +22°C° 0 mm 3 m/s 763 mmHg 48%
    23:00 +22°C° 0 mm 3 m/s 763 mmHg 48%

    16 Dezembro, Domingo

    Tempo Temperatura Precipitação Vento Pressão Humidade
    00:00 +22°C° 0 mm 3 m/s 762 mmHg 47%
    01:00 +22°C° 0 mm 3 m/s 762 mmHg 47%
    02:00 +22°C° 0 mm 3 m/s 762 mmHg 47%
    03:00 +21°C° 0 mm 3 m/s 762 mmHg 47%
    04:00 +21°C° 0 mm 3 m/s 762 mmHg 47%
    05:00 +21°C° 0 mm 3 m/s 762 mmHg 48%
    06:00 +21°C° 0 mm 3 m/s 762 mmHg 48%
    07:00 +21°C° 0 mm 4 m/s 763 mmHg 49%
    08:00 +21°C° 0 mm 4 m/s 763 mmHg 50%
    09:00 +21°C° 0 mm 4 m/s 764 mmHg 51%
    10:00 +22°C° 0 mm 4 m/s 763 mmHg 50%
    11:00 +22°C° 0 mm 4 m/s 763 mmHg 50%
    12:00 +23°C° 0 mm 4 m/s 763 mmHg 49%
    13:00 +22°C° 0 mm 5 m/s 762 mmHg 49%
    14:00 +22°C° 0 mm 5 m/s 762 mmHg 49%
    15:00 +22°C° 0 mm 6 m/s 761 mmHg 48%
    16:00 +22°C° 0 mm 6 m/s 762 mmHg 47%
    17:00 +21°C° 0 mm 6 m/s 762 mmHg 47%
    18:00 +21°C° 0 mm 6 m/s 762 mmHg 46%
    19:00 +21°C° 0 mm 5 m/s 762 mmHg 47%
    20:00 +21°C° 0 mm 5 m/s 762 mmHg 49%
    21:00 +20°C° 0 mm 4 m/s 763 mmHg 50%
    22:00 +20°C° 0 mm 4 m/s 762 mmHg 50%
    23:00 +20°C° 0 mm 4 m/s 762 mmHg 50%
    Mostrar mais